When you browse on this site, cookies collect data to enhance your experience and personalize the content and advertising you see.
Visit our Privacy Policy to learn more. By continuing to use the site, you agree to this use of cookies and data.
  • In Czech Republic
  • List of Countries
  • For 7 days
  • Water Temperature
  • Weather Map
  • Weather Widgets
  • user-avatar
    Login

    Hourly Weather Velez

    Today, 3 June, Wednesday

    Time Temperature Precipitation Wind Pressure Humidity
    00:00 +12°C° 0.7 mm 1 mps 576 mmHg 97%
    01:00 +11°C° 0.7 mm 0 mps 575 mmHg 97%
    02:00 +12°C° 0.2 mm 1 mps 575 mmHg 97%
    03:00 +11°C° 0.2 mm 1 mps 575 mmHg 97%
    04:00 +11°C° 0.2 mm 1 mps 575 mmHg 97%
    05:00 +12°C° 0.1 mm 1 mps 575 mmHg 96%
    06:00 +12°C° 0.1 mm 1 mps 576 mmHg 95%
    07:00 +13°C° 0.1 mm 1 mps 576 mmHg 94%
    08:00 +15°C° 0.2 mm 1 mps 577 mmHg 84%
    09:00 +19°C° 0.2 mm 1 mps 578 mmHg 75%
    10:00 +21°C° 0.2 mm 1 mps 579 mmHg 66%
    11:00 +20°C° 1 mm 1 mps 579 mmHg 72%
    12:00 +20°C° 1 mm 1 mps 578 mmHg 79%
    13:00 +19°C° 1 mm 1 mps 577 mmHg 86%
    14:00 +19°C° 1.4 mm 1 mps 576 mmHg 87%
    15:00 +18°C° 1.4 mm 1 mps 575 mmHg 89%
    16:00 +15°C° 1.4 mm 0 mps 575 mmHg 90%
    17:00 +14°C° 2.7 mm 0 mps 575 mmHg 93%
    18:00 +14°C° 2.7 mm 0 mps 575 mmHg 96%
    19:00 +13°C° 2.7 mm 0 mps 575 mmHg 98%
    20:00 +12°C° 1.1 mm 0 mps 575 mmHg 98%
    21:00 +12°C° 1.1 mm 0 mps 576 mmHg 98%
    22:00 +12°C° 1.1 mm 0 mps 576 mmHg 98%
    23:00 +11°C° 0.4 mm 0 mps 576 mmHg 97%

    Tomorrow, 4 June, Thursday

    Time Temperature Precipitation Wind Pressure Humidity
    00:00 +12°C° 0.4 mm 1 mps 575 mmHg 97%
    01:00 +12°C° 0.4 mm 1 mps 575 mmHg 97%
    02:00 +12°C° 0 mm 1 mps 575 mmHg 96%
    03:00 +12°C° 0 mm 1 mps 575 mmHg 96%
    04:00 +10°C° 0 mm 0 mps 574 mmHg 95%
    05:00 +11°C° 0 mm 0 mps 575 mmHg 94%
    06:00 +11°C° 0 mm 0 mps 575 mmHg 93%
    07:00 +13°C° 0 mm 1 mps 576 mmHg 93%
    08:00 +15°C° 0.1 mm 1 mps 577 mmHg 84%
    09:00 +18°C° 0.1 mm 1 mps 578 mmHg 75%
    10:00 +20°C° 0.1 mm 1 mps 579 mmHg 66%
    11:00 +20°C° 0.8 mm 1 mps 579 mmHg 72%
    12:00 +20°C° 0.8 mm 1 mps 578 mmHg 78%
    13:00 +19°C° 0.8 mm 1 mps 577 mmHg 84%
    14:00 +19°C° 1.4 mm 1 mps 577 mmHg 85%
    15:00 +19°C° 1.4 mm 1 mps 576 mmHg 87%
    16:00 +18°C° 1.4 mm 1 mps 576 mmHg 88%
    17:00 +15°C° 1.5 mm 0 mps 576 mmHg 91%
    18:00 +14°C° 1.5 mm 0 mps 576 mmHg 93%
    19:00 +13°C° 1.5 mm 0 mps 575 mmHg 96%
    20:00 +12°C° 0.6 mm 0 mps 576 mmHg 96%
    21:00 +13°C° 0.6 mm 1 mps 576 mmHg 96%
    22:00 +13°C° 0.6 mm 1 mps 576 mmHg 96%
    23:00 +12°C° 0 mm 1 mps 576 mmHg 96%

    Day after tomorrow, 5 June, Friday

    Time Temperature Precipitation Wind Pressure Humidity
    00:00 +12°C° 0 mm 1 mps 575 mmHg 96%
    01:00 +11°C° 0 mm 1 mps 575 mmHg 95%
    02:00 +11°C° 0 mm 1 mps 574 mmHg 95%
    03:00 +11°C° 0 mm 1 mps 574 mmHg 94%
    04:00 +11°C° 0 mm 1 mps 574 mmHg 94%
    05:00 +11°C° 0 mm 1 mps 575 mmHg 92%
    06:00 +12°C° 0 mm 1 mps 575 mmHg 90%
    07:00 +13°C° 0 mm 1 mps 576 mmHg 88%
    08:00 +15°C° 0 mm 1 mps 577 mmHg 79%
    09:00 +19°C° 0 mm 1 mps 579 mmHg 69%
    10:00 +21°C° 0 mm 1 mps 580 mmHg 60%
    11:00 +21°C° 0.9 mm 1 mps 579 mmHg 65%
    12:00 +21°C° 0.9 mm 1 mps 579 mmHg 70%
    13:00 +21°C° 0.9 mm 1 mps 578 mmHg 75%
    14:00 +20°C° 1.6 mm 1 mps 577 mmHg 80%
    15:00 +19°C° 1.6 mm 1 mps 577 mmHg 84%
    16:00 +16°C° 1.6 mm 0 mps 576 mmHg 89%
    17:00 +15°C° 1.8 mm 0 mps 576 mmHg 91%
    18:00 +14°C° 1.8 mm 0 mps 576 mmHg 93%
    19:00 +13°C° 1.8 mm 0 mps 576 mmHg 95%
    20:00 +14°C° 1 mm 1 mps 576 mmHg 96%
    21:00 +13°C° 1 mm 1 mps 576 mmHg 96%
    22:00 +13°C° 1 mm 1 mps 577 mmHg 97%
    23:00 +12°C° 0.3 mm 1 mps 576 mmHg 97%

    6 June, Saturday

    Time Temperature Precipitation Wind Pressure Humidity
    00:00 +12°C° 0.3 mm 1 mps 575 mmHg 96%
    01:00 +12°C° 0.3 mm 1 mps 575 mmHg 96%
    02:00 +11°C° 0 mm 1 mps 575 mmHg 96%
    03:00 +11°C° 0 mm 1 mps 575 mmHg 95%
    04:00 +11°C° 0 mm 1 mps 574 mmHg 95%
    05:00 +11°C° 0 mm 1 mps 575 mmHg 93%
    06:00 +12°C° 0 mm 1 mps 576 mmHg 92%
    07:00 +13°C° 0 mm 1 mps 576 mmHg 90%
    08:00 +15°C° 0 mm 1 mps 578 mmHg 79%
    09:00 +19°C° 0 mm 1 mps 579 mmHg 67%
    10:00 +22°C° 0 mm 1 mps 580 mmHg 56%
    11:00 +21°C° 0.5 mm 1 mps 579 mmHg 63%
    12:00 +21°C° 0.5 mm 1 mps 578 mmHg 71%
    13:00 +20°C° 0.5 mm 1 mps 577 mmHg 78%
    14:00 +19°C° 1.3 mm 1 mps 577 mmHg 82%
    15:00 +19°C° 1.3 mm 1 mps 576 mmHg 85%
    16:00 +16°C° 1.3 mm 0 mps 576 mmHg 89%
    17:00 +15°C° 1.3 mm 0 mps 576 mmHg 91%
    18:00 +14°C° 1.3 mm 0 mps 576 mmHg 93%
    19:00 +13°C° 1.3 mm 0 mps 576 mmHg 95%
    20:00 +13°C° 0.8 mm 1 mps 576 mmHg 96%
    21:00 +13°C° 0.8 mm 1 mps 576 mmHg 96%
    22:00 +12°C° 0.8 mm 1 mps 576 mmHg 97%
    23:00 +12°C° 0.2 mm 1 mps 576 mmHg 97%

    7 June, Sunday

    Time Temperature Precipitation Wind Pressure Humidity
    00:00 +12°C° 0.2 mm 1 mps 575 mmHg 96%
    01:00 +11°C° 0.2 mm 1 mps 575 mmHg 96%
    02:00 +11°C° 0 mm 1 mps 575 mmHg 96%
    03:00 +11°C° 0 mm 1 mps 575 mmHg 95%
    04:00 +11°C° 0 mm 1 mps 575 mmHg 95%
    05:00 +11°C° 0 mm 1 mps 575 mmHg 94%
    06:00 +12°C° 0 mm 1 mps 576 mmHg 92%
    07:00 +12°C° 0 mm 1 mps 576 mmHg 91%
    08:00 +14°C° 0.1 mm 1 mps 577 mmHg 82%
    09:00 +18°C° 0.1 mm 1 mps 579 mmHg 73%
    10:00 +20°C° 0.1 mm 1 mps 580 mmHg 64%
    11:00 +20°C° 0.6 mm 1 mps 579 mmHg 68%
    12:00 +20°C° 0.6 mm 1 mps 579 mmHg 72%
    13:00 +20°C° 0.6 mm 1 mps 578 mmHg 76%
    14:00 +19°C° 1.1 mm 1 mps 577 mmHg 82%
    15:00 +18°C° 1.1 mm 1 mps 577 mmHg 87%
    16:00 +15°C° 1.1 mm 0 mps 576 mmHg 92%
    17:00 +14°C° 1.2 mm 0 mps 576 mmHg 93%
    18:00 +14°C° 1.2 mm 0 mps 576 mmHg 94%
    19:00 +13°C° 1.2 mm 0 mps 576 mmHg 96%
    20:00 +12°C° 1.2 mm 0 mps 576 mmHg 96%
    21:00 +12°C° 1.2 mm 0 mps 576 mmHg 97%
    22:00 +12°C° 1.2 mm 0 mps 577 mmHg 98%
    23:00 +11°C° 0.2 mm 0 mps 576 mmHg 97%

    8 June, Monday

    Time Temperature Precipitation Wind Pressure Humidity
    00:00 +12°C° 0.2 mm 1 mps 576 mmHg 97%
    01:00 +12°C° 0.2 mm 1 mps 576 mmHg 97%
    02:00 +11°C° 0.2 mm 1 mps 575 mmHg 97%
    03:00 +11°C° 0.2 mm 1 mps 575 mmHg 96%
    04:00 +11°C° 0.2 mm 1 mps 575 mmHg 96%
    05:00 +12°C° 0 mm 1 mps 576 mmHg 95%
    06:00 +11°C° 0 mm 0 mps 576 mmHg 94%
    07:00 +12°C° 0 mm 0 mps 577 mmHg 94%
    08:00 +14°C° 0.1 mm 0 mps 578 mmHg 86%
    09:00 +18°C° 0.1 mm 1 mps 579 mmHg 78%
    10:00 +19°C° 0.1 mm 1 mps 580 mmHg 71%
    11:00 +19°C° 1.1 mm 1 mps 579 mmHg 76%
    12:00 +19°C° 1.1 mm 1 mps 579 mmHg 81%
    13:00 +18°C° 1.1 mm 1 mps 578 mmHg 85%
    14:00 +18°C° 1.2 mm 1 mps 577 mmHg 87%
    15:00 +18°C° 1.2 mm 1 mps 577 mmHg 90%
    16:00 +16°C° 1.2 mm 1 mps 576 mmHg 92%
    17:00 +14°C° 0.9 mm 0 mps 576 mmHg 93%
    18:00 +13°C° 0.9 mm 0 mps 576 mmHg 95%
    19:00 +12°C° 0.9 mm 0 mps 576 mmHg 97%
    20:00 +12°C° 0.9 mm 0 mps 576 mmHg 97%
    21:00 +12°C° 0.9 mm 0 mps 576 mmHg 97%
    22:00 +12°C° 0.9 mm 1 mps 576 mmHg 97%
    23:00 +12°C° 0.3 mm 1 mps 576 mmHg 97%
    Show more